World > North America > United States > Texas > Linn

Hourly Linn, TX Regional Weather

Feedback E-mail the Weather

Quick WX

Linn, TX Weather Maps

°F °C°F °C
Linn Weather Map
UTC Time: 8/17/2022, 01:21
Your Time:

Linn, TX Regional Weather

Expires:202208170200;;168613
ASUS44 KSJT 170115
RWRSJT
WEST CENTRAL TEXAS REGIONAL WEATHER ROUNDUP
NATIONAL WEATHER SERVICE SAN ANGELO TX
800 PM CDT TUE AUG 16 2022

NOTE: "FAIR" INDICATES FEW OR NO CLOUDS BELOW 12,000 FEET WITH NO
SIGNIFICANT WEATHER AND/OR OBSTRUCTIONS TO VISIBILITY.


TXZ229-232-234-239-242-243-245-247-249-250-
253-255-257-343-347-443-170200-
TEXAS COASTAL BEND, RIO GRANDE PLAINS DEEP SOUTH TEXAS
  
CITY           SKY/WX    TMP DP  RH WIND       PRES   REMARKS
VICTORIA       CLEAR     87  76  69 S9        29.89S                  
BEEVILLE       FAIR      85  73  65 SE9       29.89R                  
ROCKPORT       CLEAR     86  77  74 SE10      29.88F                  
PORT ARANSAS   CLEAR     85  78  78 SE12      29.90F                  
PORT LAVACA    NOT AVBL                                               
CORPUS CHRISTI PTCLDY    85  77  77 SE13      29.88F                  
KINGSVILLE NAS   N/A     85  78  80 E10G21    29.88                   
COTULLA        PTCLDY    90  74  59 SE13      29.87S                  
LAREDO         PTCLDY    89  75  63 E12       29.84R                  
BROWNSVILLE    CLEAR     86  76  71 SE10      29.87R                  
PORT ISABEL    CLEAR     85  77  77 SE13      29.87R                  
HEBBRONVILLE   MOCLDY    87  74  64 SE14      29.89R                  
MCALLEN        CLEAR     89  72  56 SE17      29.86R                  
WESLACO        NOT AVBL                                          

SKY/WX - Weather  TMP - Temperature  DP - Dew Point  RH - Humidity
WIND - Wind Direction/Speed PRES - Barometric Pressure VSB - Visibility
WCI - Wind Chill Index E13G22 Wind - East Wind 13 mph/Gusts of 22 mph

Trending Headlines

Linn Radar Loop



Linn Quick Facts


National Two Day Weather Forecast


E-mail the Linn Weather Forecast

Voice your opinion or tell us about page issues...